Weather - Helsinki Query any day in the database

Current weather  

Weather data for a selected day (2006-01-01 -2020-10-31)
Enter date:     <-     scroll days         ->
day curves
Low temperature°C +12.003:20
High temperature°C +31.016:20
Low wind chill°C 11.503:20
Average temperature°C +23.1 
High wind speed (10 min) m/s 6.011:50
Low pressurehPa 1010.018:50
High pressurehPa 1012.023:50
Low R.H% 2713:20
High R.H% 9303:20
Day weather data as a table
Date Time Temp
°C
Chill
°C
Pressure
hPA
Wind
m/s
Hum
%
Precip
mm
2011-06-10 23:50:00 19.0  19.0  1012.0 1.0 72 -
2011-06-10 23:20:00 19.0  19.0  1012.0 1.0 68 -
2011-06-10 22:50:00 21.0  ....  1011.0 1.0 60 -
2011-06-10 22:20:00 23.0  ....  1011.0 1.0 53 -
2011-06-10 21:50:00 25.0  ....  1011.0 1.0 47 -
2011-06-10 21:20:00 25.0  ....  1011.0 3.0 47 -
2011-06-10 20:50:00 25.0  ....  1011.0 3.0 44 -
2011-06-10 20:20:00 27.0  ....  1011.0 4.0 39 -
2011-06-10 19:50:00 28.0  ....  1011.0 5.0 37 -
2011-06-10 19:20:00 28.0  ....  1011.0 4.0 37 -
2011-06-10 18:50:00 29.0  ....  1010.0 5.0 34 -
2011-06-10 18:20:00 29.0  ....  1010.0 5.0 32 -
2011-06-10 17:50:00 29.0  ....  1010.0 5.0 32 -
2011-06-10 17:20:00 30.0  ....  1010.0 5.0 33 -
2011-06-10 16:50:00 30.0  ....  1010.0 5.0 30 -
2011-06-10 16:20:00 31.0  ....  1010.0 5.0 29 -
2011-06-10 15:50:00 30.0  ....  1011.0 2.0 28 -
2011-06-10 15:20:00 31.0  ....  1011.0 3.0 29 -
2011-06-10 14:50:00 31.0  ....  1011.0 3.0 29 -
2011-06-10 14:20:00 30.0  ....  1011.0 2.0 30 -
2011-06-10 13:20:00 31.0  ....  1011.0 4.0 27 -
2011-06-10 12:20:00 30.0  ....  1011.0 4.0 30 -
2011-06-10 11:50:00 29.0  ....  1011.0 6.0 32 -
2011-06-10 11:20:00 29.0  ....  1011.0 4.0 30 -
2011-06-10 10:50:00 28.0  ....  1011.0 4.0 34 -
2011-06-10 10:20:00 27.0  ....  1011.0 3.0 39 -
2011-06-10 09:50:00 26.0  ....  1011.0 2.0 44 -
2011-06-10 09:20:00 25.0  ....  1011.0 3.0 47 -
2011-06-10 08:50:00 24.0  ....  1012.0 3.0 50 -
2011-06-10 08:20:00 23.0  ....  1012.0 2.0 53 -
2011-06-10 07:50:00 21.0  ....  1012.0 2.0 60 -
2011-06-10 07:20:00 19.0  19.0  1012.0 2.0 63 -
2011-06-10 06:50:00 18.0  18.0  1012.0 2.0 67 -
2011-06-10 05:50:00 15.0  15.0  1012.0 2.0 76 -
2011-06-10 05:20:00 14.0  14.0  1012.0 1.0 82 -
2011-06-10 04:50:00 15.0  15.0  1012.0 2.0 76 -
2011-06-10 04:20:00 15.0  14.5  1012.0 3.0 76 -
2011-06-10 03:50:00 14.0  14.0  1012.0 1.0 87 -
2011-06-10 03:20:00 12.0  11.5  1012.0 2.0 93 -
2011-06-10 02:50:00 14.0  13.8  1012.0 2.0 82 -
2011-06-10 02:20:00 13.0  13.0  1012.0 1.0 87 -
2011-06-10 01:50:00 14.0  14.0  1012.0 1.0 87 -
2011-06-10 01:20:00 14.0  14.0  1012.0 1.0 87 -
2011-06-10 00:50:00 15.0  15.0  1012.0 1.0 82 -
2011-06-10 00:20:00 15.0  15.0  1012.0 1.0 82 -
Unit conversions: